| time (UTC) | temp F | wind direction | speed MPH | gust MPH | rain 1hr in | rain 24hr in | rain mn in | humidity % | barometer mb |
| 20260504192335 | 59 | 6 | 7.0 | 8.0 | 0.00 | 0.00 | 0.00 | 30 | 1016.7 |
| 20260504191833 | 59 | 0 | 7.0 | 10.0 | 0.00 | 0.00 | 0.00 | 31 | 1016.6 |
| 20260504191330 | 58 | 348 | 9.0 | 10.0 | 0.00 | 0.00 | 0.00 | 30 | 1016.7 |
| 20260504190826 | 58 | 342 | 13.0 | 18.0 | 0.00 | 0.00 | 0.00 | 30 | 1016.6 |
| 20260504190322 | 59 | 1 | 4.0 | 6.0 | 0.00 | 0.00 | 0.00 | 33 | 1016.7 |
| 20260504185819 | 59 | 355 | 5.0 | 5.0 | 0.00 | 0.00 | 0.00 | 30 | 1016.8 |
| 20260504185316 | 58 | 347 | 6.0 | 8.0 | 0.00 | 0.00 | 0.00 | 30 | 1016.7 |
| 20260504184812 | 59 | 336 | 8.0 | 9.0 | 0.00 | 0.00 | 0.00 | 31 | 1016.7 |
| 20260504184308 | 58 | 340 | 7.0 | 10.0 | 0.00 | 0.00 | 0.00 | 33 | 1016.8 |
| 20260504183803 | 58 | 330 | 7.0 | 8.0 | 0.00 | 0.00 | 0.00 | 32 | 1016.8 |
| 20260504183301 | 59 | 356 | 9.0 | 11.0 | 0.00 | 0.00 | 0.00 | 32 | 1016.8 |
| 20260504182759 | 59 | 330 | 8.0 | 10.0 | 0.00 | 0.00 | 0.00 | 33 | 1016.7 |
| 20260504182255 | 58 | 356 | 5.0 | 6.0 | 0.00 | 0.00 | 0.00 | 34 | 1017.1 |
| 20260504181753 | 59 | 331 | 9.0 | 10.0 | 0.00 | 0.00 | 0.00 | 32 | 1016.8 |
| 20260504181250 | 58 | 357 | 9.0 | 13.0 | 0.00 | 0.00 | 0.00 | 32 | 1016.8 |
| 20260504180749 | 58 | 342 | 9.0 | 13.0 | 0.00 | 0.00 | 0.00 | 32 | 1017.1 |
| 20260504180248 | 59 | 6 | 8.0 | 11.0 | 0.00 | 0.00 | 0.00 | 33 | 1016.8 |
| 20260504175745 | 57 | 17 | 11.0 | 14.0 | 0.00 | 0.00 | 0.00 | 33 | 1016.9 |
| 20260504175242 | 56 | 12 | 6.0 | 8.0 | 0.00 | 0.00 | 0.00 | 35 | 1017.1 |
| 20260504174739 | 56 | 353 | 10.0 | 16.0 | 0.00 | 0.00 | 0.00 | 34 | 1017.1 |
| 20260504174237 | 56 | 6 | 12.0 | 17.0 | 0.00 | 0.00 | 0.00 | 36 | 1017.2 |
| 20260504173733 | 56 | 333 | 7.0 | 10.0 | 0.00 | 0.00 | 0.00 | 36 | 1016.9 |
| 20260504173231 | 57 | 344 | 6.0 | 7.0 | 0.00 | 0.00 | 0.00 | 36 | 1016.9 |
| 20260504172727 | 57 | 10 | 12.0 | 14.0 | 0.00 | 0.00 | 0.00 | 34 | 1016.9 |
| 20260504172224 | 56 | 335 | 6.0 | 7.0 | 0.00 | 0.00 | 0.00 | 35 | 1016.9 |
| 20260504171720 | 55 | 22 | 5.0 | 8.0 | 0.00 | 0.00 | 0.00 | 38 | 1017.1 |
| 20260504171217 | 55 | 343 | 5.0 | 7.0 | 0.00 | 0.00 | 0.00 | 41 | 1017.1 |
| 20260504170714 | 55 | 357 | 5.0 | 7.0 | 0.00 | 0.00 | 0.00 | 40 | 1017.1 |
| 20260504170212 | 55 | 0 | 5.0 | 6.0 | 0.00 | 0.00 | 0.00 | 41 | 1016.9 |
| 20260504160130 | 53 | 327 | 3.0 | 5.0 | 0.00 | 0.00 | 0.00 | 45 | 1017.2 |
| 20260504151057 | 50 | 309 | 3.0 | 5.0 | 0.00 | 0.00 | 0.00 | 57 | 1017.2 |
| 20260504150555 | 50 | 320 | 3.0 | 3.0 | 0.00 | 0.00 | 0.00 | 57 | 1017.3 |
| 20260504141020 | 48 | 298 | 2.0 | 2.0 | 0.00 | 0.00 | 0.00 | 62 | 1017.4 |
| 20260504140517 | 48 | 292 | 2.0 | 2.0 | 0.00 | 0.00 | 0.00 | 62 | 1017.5 |
| 20260504130441 | 46 | 320 | 2.0 | 3.0 | 0.00 | 0.00 | 0.00 | 65 | 1017.4 |
| 20260504110328 | 45 | 34 | 0.0 | 0.0 | 0.00 | 0.00 | 0.00 | 67 | 1017.6 |
| 20260504100246 | 47 | 33 | 2.0 | 2.0 | 0.00 | 0.00 | 0.00 | 62 | 1017.8 |
| 20260504081639 | 50 | 51 | 13.0 | 15.0 | 0.00 | 0.00 | 0.00 | 51 | 1016.8 |
| 20260504081135 | 50 | 29 | 12.0 | 14.0 | 0.00 | 0.00 | 0.00 | 50 | 1016.9 |
| 20260504080632 | 50 | 41 | 13.0 | 16.0 | 0.00 | 0.00 | 0.00 | 49 | 1016.9 |
| 20260504080128 | 50 | 38 | 14.0 | 16.0 | 0.00 | 0.00 | 0.00 | 49 | 1017.1 |
| 20260504050445 | 57 | 43 | 11.0 | 13.0 | 0.00 | 0.00 | 0.00 | 38 | 1011.7 |
| 20260504045942 | 57 | 34 | 5.0 | 6.0 | 0.00 | 0.00 | 0.00 | 39 | 1011.5 |
| 20260504045437 | 57 | 29 | 6.0 | 7.0 | 0.00 | 0.00 | 0.00 | 38 | 1011.3 |
| 20260504044934 | 57 | 43 | 5.0 | 5.0 | 0.00 | 0.00 | 0.00 | 38 | 1011.3 |
| 20260504044432 | 57 | 29 | 5.0 | 6.0 | 0.00 | 0.00 | 0.00 | 38 | 1011.0 |
| 20260504043929 | 58 | 41 | 5.0 | 7.0 | 0.00 | 0.00 | 0.00 | 38 | 1010.8 |
| 20260504043426 | 58 | 17 | 5.0 | 7.0 | 0.00 | 0.00 | 0.00 | 38 | 1010.8 |
| 20260504042923 | 58 | 29 | 5.0 | 7.0 | 0.00 | 0.00 | 0.00 | 37 | 1010.5 |
| 20260504042420 | 59 | 13 | 5.0 | 6.0 | 0.00 | 0.00 | 0.00 | 36 | 1010.6 |
| 20260504041916 | 59 | 21 | 6.0 | 7.0 | 0.00 | 0.00 | 0.00 | 36 | 1010.4 |
| 20260504041412 | 59 | 40 | 6.0 | 7.0 | 0.00 | 0.00 | 0.00 | 35 | 1010.4 |
| 20260504040908 | 60 | 25 | 4.0 | 6.0 | 0.00 | 0.00 | 0.00 | 35 | 1010.0 |
| 20260504040406 | 60 | 36 | 8.0 | 9.0 | 0.00 | 0.00 | 0.00 | 36 | 1009.9 |
| 20260504035902 | 60 | 21 | 9.0 | 10.0 | 0.00 | 0.00 | 0.00 | 34 | 1009.9 |
| 20260504035400 | 60 | 19 | 9.0 | 11.0 | 0.00 | 0.00 | 0.00 | 35 | 1009.8 |
| 20260504034856 | 60 | 23 | 6.0 | 8.0 | 0.00 | 0.00 | 0.00 | 36 | 1009.8 |
| 20260504034354 | 60 | 49 | 8.0 | 10.0 | 0.00 | 0.00 | 0.00 | 35 | 1009.7 |
| 20260504033850 | 61 | 22 | 9.0 | 10.0 | 0.00 | 0.00 | 0.00 | 34 | 1009.5 |
| 20260504033349 | 62 | 26 | 9.0 | 10.0 | 0.00 | 0.00 | 0.00 | 34 | 1009.5 |
| 20260504032845 | 61 | 41 | 11.0 | 15.0 | 0.00 | 0.00 | 0.00 | 33 | 1009.3 |
| 20260504032342 | 61 | 32 | 7.0 | 8.0 | 0.00 | 0.00 | 0.00 | 32 | 1009.0 |
| 20260504031839 | 61 | 21 | 7.0 | 8.0 | 0.00 | 0.00 | 0.00 | 31 | 1008.8 |
| 20260504031336 | 62 | 27 | 6.0 | 7.0 | 0.00 | 0.00 | 0.00 | 29 | 1008.6 |
| 20260504030832 | 62 | 24 | 7.0 | 8.0 | 0.00 | 0.00 | 0.00 | 28 | 1008.6 |
| 20260504030330 | 59 | 40 | 11.0 | 13.0 | 0.00 | 0.00 | 0.00 | 30 | 1008.5 |
| 20260504025826 | 59 | 11 | 2.0 | 2.0 | 0.00 | 0.00 | 0.00 | 33 | 1008.7 |
| 20260504025323 | 59 | 15 | 2.0 | 2.0 | 0.00 | 0.00 | 0.00 | 32 | 1008.3 |
| 20260504024819 | 60 | 14 | 1.0 | 2.0 | 0.00 | 0.00 | 0.00 | 31 | 1008.3 |
| 20260504024316 | 60 | 17 | 1.0 | 1.0 | 0.00 | 0.00 | 0.00 | 31 | 1008.2 |
| 20260504023813 | 62 | 22 | 1.0 | 1.0 | 0.00 | 0.00 | 0.00 | 31 | 1008.3 |
| 20260504023309 | 62 | 29 | 2.0 | 2.0 | 0.00 | 0.00 | 0.00 | 31 | 1008.4 |
| 20260504022805 | 63 | 28 | 1.0 | 2.0 | 0.00 | 0.00 | 0.00 | 31 | 1008.3 |
| 20260504022304 | 64 | 35 | 1.0 | 1.0 | 0.00 | 0.00 | 0.00 | 29 | 1008.3 |
| 20260504021758 | 65 | 32 | 2.0 | 2.0 | 0.00 | 0.00 | 0.00 | 28 | 1008.4 |
| 20260504021256 | 66 | 29 | 3.0 | 3.0 | 0.00 | 0.00 | 0.00 | 27 | 1008.4 |
| 20260504020753 | 67 | 24 | 2.0 | 2.0 | 0.00 | 0.00 | 0.00 | 26 | 1008.3 |
| 20260504020249 | 67 | 25 | 3.0 | 3.0 | 0.00 | 0.00 | 0.00 | 27 | 1008.5 |
| 20260504015745 | 68 | 13 | 3.0 | 3.0 | 0.00 | 0.00 | 0.00 | 26 | 1008.4 |
| 20260504015242 | 68 | 26 | 4.0 | 5.0 | 0.00 | 0.00 | 0.00 | 25 | 1008.3 |
| 20260504014737 | 69 | 11 | 3.0 | 3.0 | 0.00 | 0.00 | 0.00 | 25 | 1008.2 |
| 20260504014234 | 71 | 12 | 4.0 | 5.0 | 0.00 | 0.00 | 0.00 | 24 | 1008.3 |
| 20260504013732 | 72 | 20 | 5.0 | 6.0 | 0.00 | 0.00 | 0.00 | 22 | 1008.3 |
| 20260504013230 | 72 | 21 | 6.0 | 7.0 | 0.00 | 0.00 | 0.00 | 22 | 1008.2 |
| 20260504012726 | 72 | 20 | 5.0 | 7.0 | 0.00 | 0.00 | 0.00 | 23 | 1008.2 |
| 20260504012224 | 72 | 335 | 4.0 | 8.0 | 0.00 | 0.00 | 0.00 | 23 | 1008.2 |
| 20260504011721 | 73 | 25 | 5.0 | 7.0 | 0.00 | 0.00 | 0.00 | 21 | 1008.4 |
| 20260504011217 | 73 | 17 | 7.0 | 8.0 | 0.00 | 0.00 | 0.00 | 21 | 1008.2 |
| 20260504010713 | 74 | 26 | 7.0 | 7.0 | 0.00 | 0.00 | 0.00 | 21 | 1008.2 |
| 20260504010210 | 74 | 22 | 6.0 | 7.0 | 0.00 | 0.00 | 0.00 | 20 | 1008.4 |
| 20260504005706 | 74 | 21 | 11.0 | 11.0 | 0.00 | 0.00 | 0.00 | 19 | 1008.5 |
| 20260504005203 | 75 | 17 | 8.0 | 8.0 | 0.00 | 0.00 | 0.00 | 19 | 1008.3 |
| 20260504004701 | 76 | 24 | 7.0 | 10.0 | 0.00 | 0.00 | 0.00 | 19 | 1008.3 |
| 20260504004157 | 75 | 9 | 5.0 | 5.0 | 0.00 | 0.00 | 0.00 | 19 | 1008.3 |
| 20260504003654 | 76 | 15 | 5.0 | 7.0 | 0.00 | 0.00 | 0.00 | 18 | 1008.4 |
| 20260504003151 | 76 | 8 | 8.0 | 9.0 | 0.00 | 0.00 | 0.00 | 18 | 1008.5 |
| 20260504002648 | 77 | 8 | 6.0 | 7.0 | 0.00 | 0.00 | 0.00 | 18 | 1008.6 |
| 20260504002145 | 77 | 348 | 3.0 | 3.0 | 0.00 | 0.00 | 0.00 | 18 | 1008.4 |
| 20260504001643 | 77 | 312 | 3.0 | 3.0 | 0.00 | 0.00 | 0.00 | 17 | 1008.4 |
| 20260504001139 | 77 | 303 | 2.0 | 2.0 | 0.00 | 0.00 | 0.00 | 19 | 1008.5 |
| 20260504000636 | 77 | 347 | 6.0 | 7.0 | 0.00 | 0.00 | 0.00 | 18 | 1008.5 |
| 20260504000133 | 77 | 314 | 3.0 | 3.0 | 0.00 | 0.00 | 0.00 | 17 | 1008.5 |
| 20260503235631 | 77 | 346 | 4.0 | 6.0 | 0.00 | 0.00 | 0.00 | 17 | 1008.7 |
| 20260503235128 | 77 | 14 | 3.0 | 7.0 | 0.00 | 0.00 | 0.00 | 17 | 1008.8 |
| 20260503234626 | 78 | 294 | 2.0 | 2.0 | 0.00 | 0.00 | 0.00 | 17 | 1008.6 |
| 20260503234124 | 77 | 319 | 2.0 | 3.0 | 0.00 | 0.00 | 0.00 | 17 | 1008.7 |
| 20260503233621 | 77 | 258 | 2.0 | 2.0 | 0.00 | 0.00 | 0.00 | 15 | 1009.0 |
| 20260503233116 | 77 | 2 | 6.0 | 8.0 | 0.00 | 0.00 | 0.00 | 17 | 1008.6 |
| 20260503232613 | 77 | 322 | 4.0 | 7.0 | 0.00 | 0.00 | 0.00 | 17 | 1008.8 |
| 20260503232111 | 77 | 338 | 7.0 | 8.0 | 0.00 | 0.00 | 0.00 | 16 | 1009.0 |
| 20260503231609 | 77 | 348 | 4.0 | 6.0 | 0.00 | 0.00 | 0.00 | 17 | 1008.8 |
| 20260503231105 | 76 | 334 | 3.0 | 3.0 | 0.00 | 0.00 | 0.00 | 17 | 1009.1 |
| 20260503230602 | 77 | 312 | 3.0 | 5.0 | 0.00 | 0.00 | 0.00 | 16 | 1009.1 |
| 20260503230059 | 77 | 344 | 6.0 | 7.0 | 0.00 | 0.00 | 0.00 | 16 | 1009.2 |
| 20260503225556 | 76 | 327 | 4.0 | 5.0 | 0.00 | 0.00 | 0.00 | 17 | 1009.4 |
| 20260503225051 | 78 | 318 | 5.0 | 7.0 | 0.00 | 0.00 | 0.00 | 17 | 1009.3 |
| 20260503224549 | 77 | 19 | 6.0 | 8.0 | 0.00 | 0.00 | 0.00 | 16 | 1009.5 |
| 20260503224046 | 76 | 340 | 6.0 | 7.0 | 0.00 | 0.00 | 0.00 | 17 | 1009.5 |
| 20260503223544 | 76 | 305 | 6.0 | 9.0 | 0.00 | 0.00 | 0.00 | 17 | 1009.5 |
| 20260503223039 | 77 | 315 | 5.0 | 6.0 | 0.00 | 0.00 | 0.00 | 16 | 1009.6 |
| 20260503222538 | 77 | 346 | 6.0 | 7.0 | 0.00 | 0.00 | 0.00 | 16 | 1009.8 |
| 20260503222035 | 76 | 354 | 3.0 | 5.0 | 0.00 | 0.00 | 0.00 | 18 | 1009.6 |
| 20260503221533 | 76 | 309 | 5.0 | 6.0 | 0.00 | 0.00 | 0.00 | 17 | 1009.8 |
| 20260503221031 | 76 | 263 | 1.0 | 2.0 | 0.00 | 0.00 | 0.00 | 17 | 1009.8 |
| 20260503220527 | 77 | 23 | 1.0 | 3.0 | 0.00 | 0.00 | 0.00 | 18 | 1009.8 |
| 20260503220023 | 77 | 326 | 5.0 | 7.0 | 0.00 | 0.00 | 0.00 | 17 | 1009.9 |
| 20260503215521 | 77 | 1 | 7.0 | 10.0 | 0.00 | 0.00 | 0.00 | 18 | 1009.8 |
| 20260503215018 | 77 | 284 | 3.0 | 5.0 | 0.00 | 0.00 | 0.00 | 17 | 1010.2 |
| 20260503214516 | 77 | 13 | 6.0 | 8.0 | 0.00 | 0.00 | 0.00 | 17 | 1010.2 |
| 20260503214012 | 77 | 281 | 4.0 | 5.0 | 0.00 | 0.00 | 0.00 | 17 | 1010.3 |
| 20260503213511 | 75 | 290 | 3.0 | 3.0 | 0.00 | 0.00 | 0.00 | 18 | 1010.4 |
| 20260503213007 | 77 | 243 | 2.0 | 6.0 | 0.00 | 0.00 | 0.00 | 17 | 1010.6 |
| 20260503212505 | 77 | 265 | 2.0 | 3.0 | 0.00 | 0.00 | 0.00 | 19 | 1010.4 |
| 20260503212002 | 77 | 297 | 3.0 | 5.0 | 0.00 | 0.00 | 0.00 | 18 | 1010.6 |
| 20260503211459 | 74 | 288 | 1.0 | 2.0 | 0.00 | 0.00 | 0.00 | 19 | 1010.6 |
| 20260503210954 | 74 | 9 | 9.0 | 10.0 | 0.00 | 0.00 | 0.00 | 17 | 1010.8 |
| 20260503210451 | 74 | 72 | 2.0 | 2.0 | 0.00 | 0.00 | 0.00 | 18 | 1010.8 |
| 20260503205946 | 74 | 345 | 6.0 | 8.0 | 0.00 | 0.00 | 0.00 | 17 | 1010.9 |
| 20260503205443 | 76 | 296 | 1.0 | 2.0 | 0.00 | 0.00 | 0.00 | 18 | 1011.3 |
| 20260503204939 | 76 | 322 | 2.0 | 3.0 | 0.00 | 0.00 | 0.00 | 18 | 1011.4 |
| 20260503204436 | 76 | 287 | 4.0 | 7.0 | 0.00 | 0.00 | 0.00 | 19 | 1011.4 |
| 20260503203933 | 75 | 0 | 3.0 | 5.0 | 0.00 | 0.00 | 0.00 | 19 | 1011.4 |
| 20260503203431 | 75 | 326 | 3.0 | 6.0 | 0.00 | 0.00 | 0.00 | 19 | 1011.5 |
| 20260503202927 | 75 | 332 | 7.0 | 9.0 | 0.00 | 0.00 | 0.00 | 18 | 1011.7 |
| 20260503202426 | 75 | 329 | 6.0 | 7.0 | 0.00 | 0.00 | 0.00 | 18 | 1011.7 |
| 20260503201924 | 75 | 318 | 3.0 | 6.0 | 0.00 | 0.00 | 0.00 | 20 | 1011.7 |
| 20260503201421 | 73 | 6 | 2.0 | 3.0 | 0.00 | 0.00 | 0.00 | 19 | 1011.6 |
| 20260503200918 | 75 | 304 | 4.0 | 6.0 | 0.00 | 0.00 | 0.00 | 19 | 1011.5 |
| 20260503200414 | 75 | 352 | 5.0 | 7.0 | 0.00 | 0.00 | 0.00 | 18 | 1011.7 |
| 20260503195911 | 75 | 222 | 1.0 | 1.0 | 0.00 | 0.00 | 0.00 | 20 | 1011.7 |
| 20260503195409 | 75 | 296 | 4.0 | 6.0 | 0.00 | 0.00 | 0.00 | 19 | 1011.9 |
| 20260503194905 | 75 | 305 | 5.0 | 7.0 | 0.00 | 0.00 | 0.00 | 20 | 1011.9 |
| 20260503194402 | 75 | 315 | 6.0 | 8.0 | 0.00 | 0.00 | 0.00 | 19 | 1012.3 |
| 20260503193858 | 75 | 282 | 3.0 | 5.0 | 0.00 | 0.00 | 0.00 | 20 | 1012.0 |
| 20260503193353 | 74 | 292 | 3.0 | 5.0 | 0.00 | 0.00 | 0.00 | 19 | 1012.1 |
| 20260503192849 | 74 | 328 | 4.0 | 6.0 | 0.00 | 0.00 | 0.00 | 21 | 1012.2 |